Карточка аэропорта UERP

Внимание!
Информация на этой странице в стадии наполнения.
Если вы не увидели какой-то информации, или заметили неточность - пожалуйста сообщите нам!
Спасибо!
Команда RU-STAFF
Название аэропортаПолярный
Название аэропорта (англ.)Poliarny
Превышение1673 ft. (509.9 m.)
Координаты66°23.85', 112°2.0999999999998'
Высота перехода700m
Эшелон переходаQFE>=714mm:FL050; QFE<714=>687:FL060; QFE<687:FL070
Коды ответчика1000
Зона ОрВДЯкутск РПИ (UEEE)
Данные METARUERP 130030Z 24002MPS CAVOK 21/07 Q1007 R35/090060 NOSIG RMK QFE711
Проноз погоды (TAF)UERP 122000Z 1221/1321 22003G08MPS 9999 SCT030CB TEMPO 1303/1312 4000 -SHRA BECMG 1305/1307 31005G12MPS
NOTAMshow/hide NOTAM
AWOS   TABLE

Информация о ВПП

ВПП Длина ВПП (м.) Покрытие Курс ВПП Частота ILS
353100Железобетон353108.1
173100Железобетон173 

Диспетчерские позиции

Позывной Наименование органа УВД Частота
UERP_TWRПолярный-Вышка124.200
UERP_CTRПолярный-Контроль132.1



Спутниковое изображение